HULIANWANG DIGUI-31

导读 | 星芒AI

HULIANWANG DIGUI-31 是中国研制的一颗卫星,主要用于科学实验和技术验证任务。该卫星属于“鸿雁”星座系统的一部分,旨在提升我国在空间通信、导航和遥感等领域的综合能力。卫星具备高精度数据传输和自主运行能力,可支持多种空间应用。其成功发射有助于推动我国航天技术的发展,并为未来构建全球卫星通信网络奠定基础。

基本信息
目录编号:
64284
目录名称:
HULIANWANG DIGUI-31
国际标识:
2025-121B
轨道中心:
EARTH
卫星名称:
HULIANWANG DIGUI-31
卫星全名:
HULIANWANG DIGUI-31
卫星状态:
在轨 (已飞行194 天)
发射日期:
2025-06-05 UTC
国别 :
中国 (CN)
星等 :
--
轨道信息
数据来源 国际轨道数据 AOE轨道数据
星历时间 2025-12-15T14:38:34+0800
18小时前
查看轨道信息
2025-12-14T08:00:00+0800
2天前
查看轨道信息
半长轴 7546.046km 7546.028km
偏心率 0.0001448 0.0001654
轨道倾角 86.499° 86.499°
近地点辐角 114.126° 83.026°
升交点赤经 75.683° 76.112°
平近点角 246.002° 313.016°
近地点 1166.818km 1166.644km
远地点 1169.004km 1169.142km
周期 108.727分钟 108.727分钟
每日圈数 13.244137 13.244183
详细信息
使用方式:
暂无
2D轨道图
3D轨道图
轨道高度分析图
轨道倾角分析图
轨道综合分析图
查看轨道综合分析图